Hourly Data Report for July 20, 2005

TORONTO CITY
ONTARIO

43°40'00.000" N
79°24'00.000" W
112.50 m
6158355
71508
XTO

Download Data

Hourly Data (July 2005)
Hourly Data Report for July 20, 2005
TIME
LST
Temp Definition
°C
Dew Point Definition
°C
Rel Hum Definition
%
Precip. Amount Definition
mm

Wind Dir Definition
10's deg

Wind Spd Definition
km/h
Visibility Definition
km
Stn Press Definition
kPa
Hmdx Definition


Wind Chill Definition


Weather Definition


00:00 21.1 17.0 77   LegendMM LegendMM   100.33 26   LegendNANA
01:00 20.7 17.0 79   LegendMM LegendMM   100.34 26   LegendNANA
02:00 20.4 16.4 78   LegendMM LegendMM   100.33 25   LegendNANA
03:00 19.4 15.9 80   LegendMM LegendMM   100.37     LegendNANA
04:00 18.7 15.6 82   LegendMM LegendMM   100.41     LegendNANA
05:00 18.0 15.2 84   LegendMM LegendMM   100.43     LegendNANA
06:00 17.9 14.9 83   LegendMM LegendMM   100.49     LegendNANA
07:00 19.5 14.7 74   LegendMM LegendMM   100.54     LegendNANA
08:00 21.1 15.0 68   LegendMM LegendMM   100.52 25   LegendNANA
09:00 23.0 14.8 60   LegendMM LegendMM   100.50 27   LegendNANA
10:00 24.8 14.9 54   LegendMM LegendMM   100.50 29   LegendNANA
11:00 25.4 16.2 57   LegendMM LegendMM   100.48 30   LegendNANA
12:00 25.6 16.2 56   LegendMM LegendMM   100.43 30   LegendNANA
13:00 26.0 16.5 56   LegendMM LegendMM   100.41 31   LegendNANA
14:00 27.5 15.6 48   LegendMM LegendMM   100.39 32   LegendNANA
15:00 27.7 15.9 49   LegendMM LegendMM   100.31 32   LegendNANA
16:00 28.3 15.9 47   LegendMM LegendMM   100.24 33   LegendNANA
17:00 26.8 16.9 55   LegendMM LegendMM   100.20 32   LegendNANA
18:00 26.1 17.7 60   LegendMM LegendMM   100.16 32   LegendNANA
19:00 25.9 18.5 64   LegendMM LegendMM   100.17 32   LegendNANA
20:00 25.6 19.0 67   LegendMM LegendMM   100.17 32   LegendNANA
21:00 25.7 20.1 71   LegendMM LegendMM   100.18 33   LegendNANA
22:00 25.2 21.2 79   LegendMM LegendMM   100.16 34   LegendNANA
23:00 24.6 20.3 77   LegendMM LegendMM   100.17 32   LegendNANA

Notes on Data Quality.

Legend

  • E = Estimated
  • M = Missing
  • NA = Not Available*
  • [empty] = Indicates an unobserved value
Date modified: